GFSNIL_sfc_rhum_000.txt.gz
RH
38 38 36 38 39 40 41 42 48 48 46 47 48 50 54 63 64 62 64 68 75 79
43 43 44 45 44 41 46 41 48 51 47 42 46 48 53 60 68 67 68 64 62 64
43 43 44 44 46 47 48 50 47 45 44 45 49 58 61 64 65 65 62 57 53 44
45 43 43 45 47 49 50 46 43 44 48 53 67 76 78 67 57 47 47 45 43 42
44 42 44 48 50 54 55 54 52 61 72 71 71 60 55 53 45 42 40 40 41 39
48 48 52 56 60 64 68 70 74 69 68 68 62 56 47 40 39 41 42 41 40 38
52 61 67 71 63 59 55 54 50 47 48 50 43 39 37 35 40 41 38 42 44 43
48 45 44 45 44 43 42 36 34 35 36 38 36 30 48 39 41 42 43 46 42 45
43 40 39 40 39 36 34 33 35 36 38 40 30 76 72 67 48 43 41 42 41 40
43 37 37 32 30 32 36 39 41 40 42 45 44 65 67 69 49 46 45 45 44 39
39 36 32 32 33 36 37 39 40 43 44 44 38 62 67 68 56 54 52 48 46 44
38 37 32 33 36 38 39 40 42 44 45 46 47 63 66 66 66 62 59 49 46 51
38 36 33 36 39 40 38 40 44 54 55 60 63 63 66 66 68 81 74 71 65 70
37 34 35 37 38 40 41 52 76 89 75 66 65 62 64 67 80 82 79 70 68 64

GFSNIL_sfc_rhum_003.txt.gz
RH
34 34 34 37 37 38 39 40 40 42 44 43 43 54 58 55 60 62 66 66 69 68
37 39 40 42 42 39 43 36 40 42 42 51 51 60 62 64 68 69 70 70 67 66
38 39 38 39 41 42 42 42 46 51 54 58 61 62 68 64 64 66 63 57 54 52
39 38 38 38 41 47 52 50 59 63 65 67 70 73 73 63 60 65 65 57 52 49
36 37 38 41 47 51 55 58 61 67 67 71 75 72 69 66 53 50 50 50 49 49
37 38 43 45 47 49 48 47 47 47 52 48 49 44 41 40 45 45 44 43 44 42
40 40 39 40 40 39 37 35 33 32 33 34 32 30 32 33 38 37 34 37 39 39
37 36 34 35 36 35 33 30 28 31 32 33 31 32 48 44 46 44 42 44 36 40
36 36 36 35 34 31 30 29 32 33 34 36 27 73 68 64 50 45 43 42 40 38
37 41 36 32 27 28 31 34 36 36 35 39 40 63 65 70 52 50 48 46 44 40
41 41 36 32 29 31 33 36 37 39 40 44 40 68 68 67 54 53 50 47 46 48
41 47 38 33 32 33 34 36 37 39 46 53 54 65 70 64 62 63 61 51 51 56
36 43 41 34 34 34 33 36 42 50 54 62 63 71 62 66 71 80 72 68 58 66
38 38 34 30 32 33 36 47 68 85 71 62 66 62 63 67 76 80 86 73 73 70

GFSNIL_sfc_rhum_006.txt.gz
RH
56 53 54 59 58 62 63 63 60 62 61 66 69 74 73 78 78 82 88 78 79 85
56 59 59 58 60 62 63 51 61 70 67 67 72 75 78 81 80 82 86 88 88 86
53 54 55 57 60 65 62 59 63 69 72 71 72 71 72 79 77 78 83 79 80 85
55 54 55 58 63 63 65 63 63 60 64 66 68 82 85 82 74 69 69 70 67 67
51 50 53 58 57 60 60 63 59 60 60 63 65 74 78 79 73 70 70 62 61 59
50 51 54 54 54 56 57 56 54 48 49 46 49 48 49 50 53 54 53 52 54 52
54 51 51 52 51 53 52 48 46 46 47 50 43 39 49 48 56 58 52 56 54 53
51 48 49 53 51 52 51 44 45 44 48 50 44 47 64 59 60 60 58 57 50 51
48 46 53 55 54 51 49 46 48 51 51 54 35 72 70 70 71 62 61 63 57 54
69 64 63 52 45 43 50 53 56 56 55 58 60 72 71 71 67 66 62 61 60 55
61 59 53 55 53 49 51 55 56 60 59 63 53 70 71 74 74 70 67 65 62 62
66 51 56 58 60 53 53 56 60 60 68 72 69 71 82 85 83 79 74 67 68 69
44 51 55 61 58 53 53 54 70 76 77 75 76 76 70 76 88 88 81 80 72 67
58 53 47 52 48 52 55 69 90 91 87 79 77 77 66 76 87 90 91 83 80 80

GFSNIL_sfc_rhum_009.txt.gz
RH
64 68 61 57 58 70 78 77 75 81 80 80 80 85 86 90 87 81 88 89 93 91
64 59 60 57 74 79 76 60 78 81 80 80 83 77 76 80 82 90 92 93 94 89
60 57 61 73 72 72 72 72 72 72 74 76 78 83 89 94 91 89 89 80 86 87
58 60 66 68 68 67 66 64 68 71 74 75 77 80 89 92 89 90 84 83 74 66
59 54 59 60 61 61 61 66 67 66 58 58 58 61 66 76 76 69 68 68 69 68
56 56 57 54 59 59 58 56 53 52 56 57 60 59 60 65 69 70 67 69 69 63
74 62 60 60 58 53 52 50 50 50 53 58 57 60 62 61 70 71 66 70 69 64
74 70 79 78 64 60 55 51 49 50 55 58 56 56 76 72 75 75 74 73 64 60
77 81 80 78 73 64 54 50 52 56 60 65 52 74 70 73 80 74 72 73 64 65
77 78 80 78 70 61 57 56 60 66 64 68 75 76 71 72 78 80 78 76 71 64
74 76 79 82 65 62 61 59 68 72 77 78 64 74 80 86 90 85 82 77 69 72
68 72 74 87 73 69 65 71 79 81 82 83 83 78 76 84 91 89 87 75 73 71
72 76 82 81 71 66 62 80 83 82 85 82 88 70 66 86 96 96 90 83 74 73
66 68 69 63 59 61 82 86 92 88 88 83 80 79 75 71 88 88 92 84 83 83

GFSNIL_sfc_rhum_012.txt.gz
RH
63 64 62 60 71 77 79 81 84 84 79 78 81 86 88 91 93 90 95 94 93 87
62 61 63 72 78 79 78 71 75 77 77 77 80 84 87 92 91 93 93 94 92 89
62 66 72 75 75 75 74 70 70 68 72 77 80 84 89 92 90 92 95 90 87 83
64 65 74 73 72 72 70 70 66 71 72 68 69 69 76 82 87 78 73 74 73 73
67 64 64 72 73 72 68 66 65 63 57 58 59 62 65 70 70 71 71 73 74 72
71 71 69 68 70 67 69 66 69 55 53 55 61 63 67 70 72 72 72 74 76 74
72 82 76 76 75 76 77 78 72 54 54 61 62 64 65 67 73 74 70 76 76 76
82 80 81 79 82 81 83 81 57 55 58 64 66 61 76 72 74 76 77 76 73 67
77 80 84 86 86 90 87 56 58 61 66 68 57 76 72 75 83 77 76 80 71 71
81 80 87 90 92 92 79 74 66 71 74 77 75 77 76 79 81 86 85 84 80 72
76 77 83 88 89 94 95 67 75 83 80 78 70 80 78 81 93 91 88 84 82 77
75 77 82 89 92 92 79 79 84 79 83 90 88 67 74 89 96 89 86 76 73 71
74 79 81 85 90 72 74 81 77 79 85 72 83 67 66 66 98 96 88 82 73 74
69 68 68 64 62 77 84 82 90 86 88 83 78 80 64 65 84 90 92 84 82 82

GFSNIL_sfc_rhum_015.txt.gz
RH
64 69 68 66 75 84 86 84 86 82 77 76 79 84 89 92 92 91 94 91 93 95
69 72 74 73 82 85 83 76 83 81 76 76 79 84 88 94 93 92 94 94 95 94
69 70 75 80 82 82 80 71 70 72 73 73 74 80 84 85 88 93 94 90 77 74
79 74 74 81 81 77 74 75 76 74 71 70 63 66 69 72 80 79 74 75 75 76
75 73 76 76 78 76 74 76 70 73 73 65 62 64 66 70 72 73 73 75 77 76
74 80 86 75 73 76 75 74 83 82 80 66 63 62 67 71 72 71 74 76 77 77
77 79 77 79 78 80 82 90 87 87 72 65 64 66 66 67 71 76 73 76 78 78
81 83 84 86 89 88 86 88 94 69 67 68 69 62 72 71 77 79 79 78 74 72
79 83 85 90 92 92 94 87 74 76 72 72 60 75 74 83 89 81 81 87 77 76
77 82 82 87 92 93 94 94 80 79 79 76 76 79 78 82 90 92 91 84 82 73
74 79 81 86 91 93 94 94 84 82 78 82 78 69 72 82 90 90 85 74 77 77
77 81 84 86 90 92 92 83 84 80 82 82 76 66 66 71 94 89 84 75 73 70
79 79 77 80 88 76 78 78 75 72 84 69 82 68 64 68 97 97 88 83 74 76
70 72 72 70 70 86 86 84 86 86 88 81 76 79 66 65 93 92 92 87 84 84

GFSNIL_sfc_rhum_018.txt.gz
RH
67 74 75 73 76 83 87 91 87 83 78 75 79 83 84 90 89 87 92 90 90 94
75 76 81 81 84 90 90 80 86 84 75 79 79 78 85 92 91 90 90 92 95 95
80 77 78 82 86 87 87 81 76 73 80 78 78 82 84 85 83 85 91 91 83 76
71 72 78 81 83 83 81 78 77 80 80 78 74 73 74 74 73 82 80 75 75 76
68 75 83 80 80 83 83 82 84 74 75 78 80 72 71 71 73 75 73 74 76 75
70 75 76 75 76 78 84 84 76 78 86 89 79 67 69 73 72 71 74 76 78 76
72 76 81 81 84 87 88 86 84 87 92 78 68 67 68 67 73 76 75 77 78 80
76 84 88 90 90 92 93 91 89 90 83 73 69 62 71 76 82 84 85 83 80 77
76 80 88 87 87 93 94 94 95 73 74 75 63 78 78 88 94 88 85 85 76 72
76 80 84 84 90 92 93 95 90 81 77 81 85 72 70 83 79 80 80 76 73 69
77 80 83 87 88 91 94 94 83 80 83 83 68 65 66 68 87 87 81 76 76 73
78 83 88 85 84 90 91 87 81 78 76 73 71 66 64 69 87 86 82 73 73 70
80 83 78 79 81 85 84 83 78 74 79 69 79 67 65 68 93 97 89 85 73 75
78 75 75 75 74 78 88 83 88 87 86 78 74 79 68 68 92 92 92 88 83 82

GFSNIL_sfc_rhum_021.txt.gz
RH
56 53 53 57 56 56 60 62 65 67 59 56 58 57 60 59 59 62 60 62 57 52
58 57 54 54 59 59 61 56 64 67 60 59 58 57 58 58 61 61 59 59 61 59
50 49 50 53 50 52 54 56 62 64 60 59 60 62 58 58 56 58 54 54 60 54
43 48 52 51 50 49 55 52 59 61 62 61 66 65 64 57 53 54 55 56 56 55
45 46 48 49 50 54 56 60 62 62 61 61 72 66 61 53 53 55 55 53 54 55
41 47 51 54 56 57 60 64 66 62 64 73 73 56 53 55 54 52 54 56 57 57
47 53 57 60 62 63 64 69 69 71 75 74 57 54 53 52 55 58 58 61 61 59
49 58 60 64 63 65 68 69 71 71 67 65 57 49 59 61 62 60 57 54 48 48
53 57 60 61 66 66 67 67 74 69 61 59 53 79 76 71 55 51 47 47 46 45
58 60 60 59 61 62 64 72 76 64 57 61 59 65 67 68 54 51 50 48 48 48
58 59 58 63 62 61 62 70 70 62 61 58 49 64 65 66 52 53 50 49 51 51
59 59 61 61 59 57 62 64 62 59 58 52 49 62 63 61 63 62 59 54 52 54
56 60 61 59 57 56 56 59 58 56 56 62 59 63 63 63 69 80 68 61 51 61
56 60 59 58 55 55 56 65 70 73 66 60 61 59 65 68 76 73 71 62 56 58

GFSNIL_sfc_rhum_024.txt.gz
RH
35 30 30 31 28 29 31 31 34 37 40 47 48 50 47 48 52 54 51 46 42 37
40 30 28 30 33 29 32 28 33 38 43 46 51 50 49 46 53 54 54 45 46 41
28 28 30 32 31 32 33 34 36 38 40 43 45 47 49 48 50 52 45 38 45 44
28 28 30 30 31 33 38 37 38 41 44 43 43 46 50 55 54 48 42 45 47 46
27 26 28 30 33 37 40 39 40 44 44 44 47 60 71 53 41 43 45 45 46 46
26 28 30 32 37 39 41 40 42 43 46 47 55 63 59 50 47 46 47 48 49 47
30 31 34 36 40 42 42 43 43 46 48 52 51 52 48 45 50 49 46 48 47 44
32 34 36 44 44 44 46 44 44 48 50 52 52 46 55 48 48 46 44 42 37 38
34 35 39 44 46 43 45 43 44 47 53 53 39 73 72 66 44 42 39 38 37 37
36 37 41 38 38 40 44 48 48 51 53 51 52 61 62 64 42 41 40 40 39 37
36 39 38 40 40 45 46 47 48 51 50 52 46 62 62 64 44 45 44 43 43 43
40 42 38 39 44 46 46 47 48 48 52 52 48 61 61 61 53 53 52 45 44 44
40 40 40 42 46 47 47 45 44 48 52 58 54 63 61 60 62 76 60 51 45 48
38 41 43 46 48 48 48 50 58 65 58 55 58 57 62 63 74 69 65 56 51 47

GFSNIL_sfc_rhum_027.txt.gz
RH
32 34 28 27 27 29 29 28 31 33 34 36 39 40 53 54 49 58 60 63 57 51
46 35 27 28 32 28 29 25 30 35 36 35 37 41 48 50 53 52 56 64 61 50
41 29 27 31 31 29 31 32 35 36 36 38 39 39 42 45 48 53 58 54 50 45
35 28 29 30 30 30 33 34 34 34 36 36 36 37 46 59 60 58 58 46 45 53
28 25 28 29 28 31 34 36 35 34 35 35 35 41 58 53 61 62 54 50 50 48
26 26 28 29 29 32 34 36 36 35 37 37 40 41 48 55 53 50 51 51 51 47
25 28 31 29 30 34 35 37 37 37 37 41 41 41 44 44 50 54 49 48 44 39
27 30 31 31 34 37 39 37 37 37 38 44 44 42 52 47 48 48 45 42 34 36
29 30 31 32 39 40 37 35 37 38 40 49 40 76 70 64 48 43 38 38 37 36
30 31 32 31 31 33 36 40 42 42 43 51 50 67 62 63 47 44 41 41 40 38
28 28 30 32 33 35 38 41 42 43 47 49 50 67 62 64 51 44 45 45 44 42
26 33 34 33 34 36 39 42 44 41 47 53 55 67 62 61 52 51 50 46 43 44
32 34 33 35 38 40 41 41 40 41 48 58 54 67 63 60 61 68 60 51 45 56
31 32 35 38 41 42 44 48 58 69 60 55 62 64 66 62 65 68 66 58 52 49

GFSNIL_sfc_rhum_030.txt.gz
RH
52 52 49 49 42 48 47 48 48 50 54 54 55 59 63 70 75 76 80 79 82 85
50 46 48 42 45 50 46 38 52 54 54 55 57 60 63 69 73 75 79 80 83 85
50 46 42 45 50 45 46 45 50 52 53 54 56 57 60 72 75 76 81 77 83 78
49 49 44 48 48 47 47 47 49 49 50 50 52 55 62 66 64 70 81 82 75 74
50 45 44 45 46 47 48 49 49 49 48 49 50 56 60 66 67 68 69 69 66 65
47 43 42 44 44 44 48 50 50 48 52 52 54 54 58 60 63 68 68 70 68 65
47 45 42 43 44 47 48 50 51 52 54 56 52 52 53 53 62 67 60 64 63 56
48 38 41 46 47 49 53 50 51 52 55 55 52 47 64 57 62 66 62 61 49 50
41 40 45 47 50 53 56 52 51 53 54 58 44 78 71 64 65 61 60 61 57 54
38 41 45 41 42 45 51 55 57 58 57 61 72 77 68 65 60 66 67 62 62 54
39 37 37 43 47 52 53 57 60 60 59 64 62 77 69 65 66 70 66 64 63 63
35 36 42 47 50 52 54 59 60 56 60 64 74 78 70 65 72 75 73 63 63 60
38 43 47 49 53 56 56 53 56 61 64 69 80 76 70 67 90 88 88 76 66 64
50 54 47 52 54 56 59 67 74 76 74 72 82 80 71 68 82 93 93 86 84 84

GFSNIL_sfc_rhum_036.txt.gz
RH
57 57 64 60 52 60 57 57 55 57 57 57 59 60 63 79 87 87 90 86 90 93
60 60 61 66 67 61 59 52 58 55 57 56 57 58 69 84 79 84 90 90 90 94
63 61 60 58 59 50 52 55 55 54 53 55 54 60 72 79 73 82 89 90 88 90
51 52 54 52 54 52 53 52 50 56 59 53 53 59 76 74 75 76 82 85 87 84
58 66 56 53 56 53 51 55 59 60 60 56 57 62 69 74 71 71 75 77 74 72
52 48 49 53 54 54 57 58 62 63 59 58 61 65 72 71 73 74 76 76 76 75
48 50 52 62 54 55 58 62 61 60 60 63 62 65 64 66 73 74 67 66 65 65
71 58 62 61 59 63 61 59 58 60 62 62 62 59 67 65 70 69 65 65 61 61
65 63 61 63 60 60 57 57 60 61 64 66 56 69 79 72 70 62 62 64 68 64
61 62 63 58 55 58 63 67 68 67 68 71 72 82 80 74 66 66 66 69 73 65
58 58 61 65 65 73 74 70 71 70 69 73 74 83 80 77 68 68 69 75 73 74
62 64 67 73 82 79 78 75 70 66 73 76 80 82 82 75 72 73 74 72 73 76
71 81 84 83 78 80 76 64 67 71 75 74 82 84 84 78 85 86 86 81 80 70
85 85 79 77 77 72 71 74 82 84 85 84 85 86 85 82 82 83 88 87 89 85

GFSNIL_sfc_rhum_039.txt.gz
RH
88 85 91 82 76 64 60 59 58 63 64 66 60 60 63 74 84 89 90 88 91 91
79 78 86 75 67 60 60 54 58 63 62 60 60 58 64 80 82 81 89 88 88 90
78 75 73 68 63 57 57 55 63 59 58 59 60 61 72 84 78 84 89 88 88 89
70 63 62 60 54 51 56 55 54 56 57 61 60 66 77 81 77 78 82 88 89 86
72 67 58 54 50 55 57 62 56 62 64 62 60 64 76 77 73 80 81 81 84 82
65 55 51 58 61 63 64 63 62 65 64 62 65 66 70 76 79 80 79 82 81 76
73 65 68 65 66 66 66 64 66 64 65 65 62 62 68 72 78 81 80 79 75 68
74 64 68 71 72 72 70 67 62 62 64 65 63 59 72 71 79 82 75 72 67 67
71 70 70 70 72 72 66 63 68 77 74 68 61 70 80 79 81 75 72 72 68 68
70 70 68 62 64 66 72 82 90 83 71 70 74 79 80 84 78 76 72 70 68 69
67 67 65 65 72 82 94 94 82 77 73 77 74 82 83 85 75 74 71 72 74 76
71 74 77 80 92 94 86 82 77 72 75 79 77 78 84 86 77 76 73 70 73 76
80 91 94 94 86 85 82 81 75 75 80 80 84 80 85 88 91 86 82 81 77 80
90 90 88 84 83 80 80 82 87 87 87 86 86 86 84 87 90 84 84 85 85 83

GFSNIL_sfc_rhum_042.txt.gz
RH
89 89 89 88 87 77 67 66 65 64 68 74 79 79 65 70 77 87 90 90 92 89
90 91 93 90 87 79 72 62 62 67 75 88 77 64 66 74 80 83 88 89 90 90
95 94 94 90 81 72 68 58 66 71 82 69 64 64 67 72 79 84 88 89 90 91
94 90 91 84 81 73 65 61 68 76 65 65 66 66 68 74 82 81 86 88 91 90
92 87 86 83 72 67 68 67 64 64 66 64 64 66 71 77 73 82 85 85 89 89
88 81 82 77 75 64 66 71 75 68 70 71 73 68 70 74 78 81 83 82 86 84
84 80 78 71 67 72 70 69 71 74 71 69 65 69 68 68 75 83 82 85 86 84
85 78 78 73 77 76 77 72 68 76 86 87 77 65 72 70 79 83 86 86 82 80
79 74 75 76 72 73 78 84 86 90 92 91 81 80 78 82 85 84 85 83 80 71
73 72 73 69 72 79 84 92 97 94 93 90 80 79 82 86 91 87 85 81 73 66
71 70 69 75 84 93 96 96 96 92 85 81 74 80 84 88 92 86 82 77 72 70
71 76 81 89 96 98 99 95 87 81 78 79 80 81 81 86 92 82 78 73 72 73
88 93 96 96 93 87 84 83 86 81 81 83 86 82 82 87 96 90 84 81 72 77
91 91 90 88 86 83 83 87 89 89 89 86 86 86 84 85 96 93 91 86 86 81

GFSNIL_sfc_rhum_045.txt.gz
RH
78 79 78 81 86 83 74 69 65 59 54 57 69 70 90 78 67 59 59 65 63 58
81 82 88 89 86 83 79 70 65 60 59 65 71 85 76 61 59 63 67 68 71 65
82 82 85 87 83 83 76 66 66 60 65 75 82 70 70 58 61 62 64 61 66 62
85 84 85 89 88 83 75 64 58 59 74 79 71 65 69 70 64 63 60 63 64 63
88 90 91 92 88 82 74 67 68 72 74 72 67 56 73 72 66 58 59 61 64 62
83 85 86 86 82 78 74 66 69 70 73 72 70 71 72 73 59 57 60 60 62 59
81 82 82 75 70 68 63 66 66 74 72 74 72 72 66 55 57 58 59 62 63 60
75 68 66 64 70 70 74 73 68 77 80 88 85 78 78 70 66 64 62 63 63 64
64 67 75 75 77 82 82 76 74 85 91 93 88 95 92 86 68 58 59 60 60 61
69 72 73 73 76 79 87 89 95 96 94 96 92 90 86 84 60 61 60 61 59 56
68 70 71 81 87 92 95 95 95 92 87 80 70 82 84 87 62 62 62 63 61 60
64 72 80 87 93 95 94 89 80 76 70 67 62 81 82 77 62 63 62 57 58 57
71 81 84 90 92 90 73 68 62 62 65 72 66 76 83 78 73 77 70 62 58 75
87 90 86 81 71 64 63 67 72 74 68 66 68 65 80 83 75 78 76 70 64 63

GFSNIL_sfc_rhum_048.txt.gz
RH
69 72 65 60 64 72 77 76 70 67 63 55 54 59 71 67 66 56 53 48 45 37
81 79 72 68 76 82 80 75 69 66 66 65 51 58 77 72 77 65 62 68 59 50
72 72 71 72 81 79 78 72 70 71 62 56 67 75 81 70 75 73 71 68 66 50
71 74 73 78 79 76 77 75 74 67 58 63 77 80 80 85 77 70 80 71 59 53
68 74 78 81 83 84 84 79 70 67 72 79 80 81 84 80 82 81 75 66 55 50
76 85 88 90 90 89 88 80 75 78 75 74 77 84 88 83 85 82 70 62 55 48
80 82 84 84 82 81 75 75 76 76 81 86 86 76 79 85 82 75 65 60 56 50
76 73 69 66 63 64 65 66 68 78 87 84 81 84 85 83 83 80 76 65 52 50
59 57 62 64 66 66 71 69 74 70 75 83 80 94 97 94 86 77 61 52 48 45
57 59 62 57 58 63 70 82 84 87 88 89 88 97 97 95 64 54 50 49 46 41
54 56 57 60 65 77 82 86 88 90 85 79 72 85 86 86 54 51 48 47 45 45
53 57 58 67 78 81 88 88 77 63 59 57 52 76 81 76 55 51 51 44 43 43
55 60 66 80 88 85 70 52 46 47 50 61 55 68 81 74 59 61 58 52 46 66
67 71 74 69 54 48 47 50 59 60 56 51 55 55 77 79 69 68 68 60 54 51

GFSNIL_sfc_rhum_051.txt.gz
RH
52 52 56 59 55 59 63 64 71 75 74 71 69 70 72 75 74 65 70 69 74 78
65 61 66 68 65 66 70 75 79 81 73 68 65 73 84 82 75 76 74 88 84 72
58 68 69 70 74 74 77 75 74 73 72 72 73 77 72 80 81 82 92 86 85 79
70 70 80 81 84 84 77 73 72 72 75 76 73 70 84 79 86 85 90 93 84 78
76 79 84 88 88 90 87 86 82 82 85 85 86 90 93 87 82 86 92 82 83 80
82 82 89 91 92 92 91 90 88 84 86 94 93 88 83 89 90 92 91 87 83 76
83 84 87 89 88 87 81 80 80 80 84 86 85 84 84 88 92 89 87 86 83 78
79 75 74 76 75 75 74 72 74 78 82 86 87 86 89 85 87 88 88 86 80 75
59 58 61 63 65 63 64 62 65 67 71 75 66 94 94 91 89 86 85 79 75 60
55 57 58 53 53 56 60 65 72 74 75 74 80 97 97 98 77 66 57 51 48 43
52 52 52 55 60 65 68 68 72 78 83 78 68 93 95 90 57 50 48 46 45 46
50 54 55 59 65 69 73 81 68 65 62 56 50 83 78 71 53 52 51 44 43 43
50 55 67 75 80 79 65 51 43 43 44 64 46 73 78 69 62 67 63 56 50 62
61 65 68 67 56 47 44 44 55 54 52 48 51 56 79 81 65 76 79 73 69 66

GFSNIL_sfc_rhum_054.txt.gz
RH
62 71 78 73 62 74 70 76 79 86 81 82 85 85 83 85 86 92 96 94 85 86
84 90 94 85 78 83 80 85 90 92 87 89 86 86 88 91 94 93 92 92 90 92
79 86 86 85 82 85 93 93 93 93 90 86 86 86 88 92 87 91 96 96 92 94
82 76 78 85 88 88 93 92 87 87 87 86 85 88 91 95 93 95 96 94 93 93
73 79 88 93 95 95 93 91 90 88 88 88 92 92 93 94 94 93 94 93 95 93
90 94 97 96 96 96 95 93 92 92 92 94 94 94 94 91 89 90 88 91 94 87
92 95 96 95 94 92 90 91 92 92 92 93 92 90 88 88 89 90 92 92 90 86
89 88 88 87 86 84 83 83 85 88 90 89 88 86 87 86 93 93 92 91 88 86
78 79 80 81 80 78 78 81 82 84 85 90 79 93 91 92 93 90 90 91 87 82
68 71 73 69 69 72 76 80 82 82 83 84 91 94 94 96 89 90 91 88 79 64
63 62 61 65 71 79 81 83 87 87 87 88 84 96 96 97 92 72 69 69 67 68
58 61 65 68 77 84 83 86 84 76 80 79 79 93 88 79 78 74 76 64 68 70
58 64 80 81 83 86 81 69 60 56 64 62 78 85 85 75 91 91 89 79 67 74
68 72 75 80 76 73 62 66 74 73 71 66 74 80 74 71 81 87 83 80 75 73

GFSNIL_sfc_rhum_057.txt.gz
RH
70 71 74 78 86 84 82 83 86 92 93 92 91 93 92 94 96 94 93 96 96 92
70 75 83 81 80 92 92 93 94 95 95 96 96 94 93 95 96 96 96 96 96 96
78 82 92 94 94 92 95 96 98 98 97 96 92 90 92 94 94 95 98 97 95 95
86 91 96 95 92 92 96 96 97 95 92 92 92 92 94 94 95 95 97 96 95 94
94 97 97 96 96 97 97 97 95 95 95 92 92 92 94 94 92 94 96 94 94 91
87 90 95 99 99 98 97 97 95 93 92 93 94 94 93 93 95 94 90 91 92 92
98 98 98 98 97 96 94 95 94 94 95 95 94 93 92 92 92 91 90 93 94 91
98 95 93 93 92 92 93 94 92 94 94 94 92 90 91 89 92 94 94 94 92 91
90 90 90 89 90 90 88 88 88 90 91 92 86 94 92 93 94 93 93 94 92 93
85 86 86 79 79 83 88 92 93 94 94 94 94 93 94 95 91 92 95 95 96 91
80 82 77 81 89 93 92 92 94 92 91 91 88 95 96 99 95 93 83 82 83 86
72 76 80 85 86 92 92 89 88 86 94 92 94 97 97 88 89 88 88 72 76 74
72 79 88 87 86 87 90 84 83 79 82 85 86 82 85 82 91 83 82 78 74 75
83 85 88 89 91 92 85 73 85 86 86 84 81 79 73 72 84 91 90 84 84 84

GFSNIL_sfc_rhum_060.txt.gz
RH
71 75 79 77 70 74 77 74 81 90 90 95 97 97 97 96 97 96 98 98 98 97
72 77 80 80 82 86 86 90 94 94 93 97 96 98 96 98 97 95 96 97 95 97
73 76 80 92 85 84 94 92 95 97 96 98 97 97 97 97 96 96 97 97 96 96
76 76 94 97 98 97 98 97 98 98 98 98 98 96 96 97 96 97 98 96 95 95
96 96 97 95 97 99 99 98 97 98 96 95 95 95 95 97 96 96 97 96 96 94
92 93 92 95 94 93 98 98 98 97 97 97 96 96 95 94 95 95 94 94 93 92
89 90 93 98 99 98 98 98 98 97 96 96 94 93 93 93 95 95 93 92 91 91
95 98 98 99 98 97 95 95 94 96 97 96 94 93 94 93 94 92 94 94 92 93
97 96 97 97 97 96 95 95 93 95 95 97 92 98 95 92 92 90 93 96 93 92
94 94 94 93 92 95 93 93 96 95 93 94 96 95 93 95 96 94 94 94 94 78
90 89 86 86 89 93 92 92 93 92 93 94 93 95 98 98 96 93 91 89 85 83
83 85 88 90 93 93 94 94 94 94 95 96 99 97 98 92 93 86 79 74 75 77
87 88 91 92 93 92 91 90 91 96 97 96 89 91 90 85 87 81 80 76 72 71
84 89 90 90 89 92 92 87 94 95 89 84 84 82 74 71 79 85 84 79 82 85

GFSNIL_sfc_rhum_063.txt.gz
RH
67 71 74 75 69 74 75 71 81 92 92 92 93 96 98 99 99 98 96 94 95 96
70 74 74 76 90 85 85 81 90 93 93 93 93 95 98 98 98 98 97 97 98 97
67 71 77 84 84 87 87 93 96 96 94 94 95 97 97 98 98 97 98 99 98 97
71 74 80 83 84 90 93 97 98 97 97 97 98 99 99 98 98 97 98 98 96 97
78 84 83 86 86 86 93 98 98 98 98 98 98 98 98 98 97 97 98 97 96 97
89 93 94 92 86 92 94 96 99 99 99 99 98 98 97 96 97 96 95 95 95 96
88 90 86 86 86 91 94 96 96 97 98 98 98 96 95 95 96 96 96 95 93 92
84 83 86 90 95 99 98 98 98 99 99 98 97 96 95 94 96 96 96 94 92 94
79 92 95 98 98 99 98 98 98 98 98 98 97 99 97 95 94 92 92 96 97 90
96 98 98 98 98 98 98 98 99 98 97 98 98 98 97 95 89 91 95 95 88 72
98 98 98 98 98 98 98 98 98 98 97 97 96 97 97 97 91 88 86 86 80 88
96 97 96 96 98 97 96 96 95 94 93 94 97 99 95 87 89 80 80 77 76 74
89 91 93 94 97 94 90 92 92 95 95 97 97 95 90 86 84 82 80 71 70 73
90 90 90 92 91 91 94 97 97 93 90 87 86 87 80 74 82 82 79 75 79 80

GFSNIL_sfc_rhum_066.txt.gz
RH
79 80 77 82 74 85 85 80 78 91 95 95 95 96 98 98 98 98 99 98 98 97
80 82 84 85 90 90 90 89 88 90 92 94 95 97 96 97 98 99 98 97 97 96
81 83 86 89 90 92 94 92 91 92 93 94 95 96 96 96 96 98 99 98 98 97
84 85 88 91 93 93 92 90 89 88 91 94 95 98 97 96 99 99 99 99 98 98
80 78 81 82 80 81 81 82 86 88 92 96 98 98 98 99 99 98 99 99 98 98
79 78 76 74 74 75 79 80 86 91 96 97 98 98 99 98 98 98 97 97 96 97
82 79 74 74 77 82 86 89 92 94 95 97 98 98 98 99 99 98 97 96 95 95
80 79 77 79 83 86 90 92 94 96 98 99 99 98 98 98 98 98 98 97 95 95
82 83 85 86 89 89 92 94 98 99 98 99 99 100 100 97 98 96 96 98 96 93
84 86 87 89 94 98 98 99 99 99 98 99 99 100 100 98 94 95 96 94 86 77
88 89 98 98 98 99 99 98 98 98 98 98 98 99 98 97 93 93 91 86 84 77
96 98 98 98 98 98 98 98 99 98 98 98 98 97 94 88 84 80 77 74 72 70
98 98 98 98 98 98 96 97 95 97 96 98 97 95 90 80 80 77 74 68 69 73
96 96 96 97 96 95 96 97 98 98 96 94 92 92 85 79 78 76 75 72 76 77

GFSNIL_sfc_rhum_069.txt.gz
RH
70 65 64 64 59 62 60 59 63 70 68 69 70 74 76 80 82 84 90 86 90 96
71 71 69 68 70 70 68 66 66 68 70 71 72 73 76 80 82 86 86 90 97 94
72 71 70 72 71 69 70 68 67 67 68 66 68 72 75 79 79 85 88 90 96 90
76 75 74 74 73 72 74 75 75 70 68 66 68 72 77 78 80 89 89 98 97 94
79 76 76 76 74 76 74 74 73 74 72 68 70 77 87 95 97 98 98 98 99 97
83 81 79 78 75 73 71 70 76 78 78 79 84 91 96 96 98 98 98 98 98 96
79 78 76 74 71 72 68 71 70 77 78 78 81 90 93 97 98 98 97 98 97 96
73 73 71 72 70 68 70 68 69 78 84 86 94 98 98 98 98 98 98 98 96 94
68 70 72 72 71 71 73 73 76 89 90 99 98 100 100 99 97 98 96 98 98 96
70 71 74 71 69 73 78 81 86 93 96 98 98 100 100 100 96 96 95 97 94 87
72 74 73 76 80 84 88 94 98 98 99 98 99 100 100 100 96 96 94 90 88 88
72 75 78 82 96 99 99 99 99 98 98 98 98 99 98 94 92 92 91 84 80 75
74 80 97 98 98 98 98 98 98 98 97 98 97 96 92 88 88 88 86 83 77 75
96 97 97 98 98 97 97 97 98 98 98 96 94 94 90 86 82 82 81 74 66 69

GFSNIL_sfc_rhum_072.txt.gz
RH
62 68 65 65 60 65 64 64 65 72 74 70 67 73 72 69 59 64 67 69 68 61
60 61 60 62 59 57 59 54 64 65 68 67 63 61 66 60 60 61 64 66 67 66
58 59 57 57 60 59 58 55 58 60 61 58 55 54 56 55 54 57 60 58 64 68
58 58 61 62 60 60 60 58 57 58 57 51 51 51 54 55 55 56 59 62 71 79
60 57 60 63 62 64 62 60 57 55 52 51 50 55 56 58 56 58 61 68 83 94
65 64 64 64 62 58 59 58 57 55 56 55 58 57 58 58 61 63 76 86 96 96
64 65 62 59 58 60 56 55 55 56 57 60 59 61 62 82 86 90 88 92 94 96
61 59 59 61 61 59 60 57 55 58 59 62 73 77 79 72 78 91 96 98 98 97
58 59 60 60 62 62 62 60 59 60 59 62 65 86 98 84 92 97 98 98 98 98
55 57 60 58 58 60 62 63 65 61 59 64 68 100 100 100 92 96 97 98 97 96
53 55 55 58 59 62 62 65 68 70 69 78 92 100 100 100 99 99 98 97 94 93
50 55 55 58 63 67 73 81 88 91 97 98 98 100 100 98 96 96 95 91 89 87
49 54 58 62 76 95 93 97 98 98 97 99 98 99 98 93 93 96 95 93 93 92
53 58 67 93 91 94 96 97 98 98 98 96 95 96 94 92 90 90 90 90 92 94

GFSNIL_sfc_rhum_075.txt.gz
RH
67 62 60 66 61 65 72 76 79 82 75 70 72 68 71 71 72 78 76 72 68 56
66 65 66 64 67 65 63 58 69 74 75 73 71 68 68 76 73 73 74 76 72 66
57 60 64 64 66 67 67 66 71 72 69 68 67 65 64 63 64 74 78 70 71 70
54 55 59 63 63 63 64 64 63 66 63 60 60 60 62 61 61 64 67 67 65 66
56 54 57 59 60 64 61 60 58 58 60 58 57 59 62 63 58 62 60 59 62 63
60 59 59 60 60 57 60 58 58 56 59 58 59 58 59 58 58 57 57 59 62 62
58 59 57 57 57 59 57 58 58 59 58 58 55 53 52 52 57 59 58 62 66 66
57 56 55 57 57 57 59 56 56 58 60 60 58 54 58 57 62 66 67 79 88 90
52 54 56 58 60 60 60 57 57 58 58 61 54 70 82 78 76 85 86 86 79 86
50 53 57 55 55 58 61 62 63 60 59 60 60 82 91 94 75 81 81 85 95 99
48 50 52 55 56 60 61 65 66 66 64 63 60 92 99 99 78 78 92 98 98 99
45 47 49 53 58 61 63 66 68 67 68 69 70 100 100 99 99 99 99 97 96 95
41 45 49 53 58 62 64 68 80 93 97 100 99 100 100 99 98 98 98 98 98 97
43 48 52 55 56 63 82 94 98 98 98 98 98 98 98 96 96 95 95 96 97 97

GFSNIL_sfc_rhum_078.txt.gz
RH
79 80 80 84 80 75 75 80 75 80 79 78 76 76 80 82 87 86 88 85 83 84
76 76 80 80 79 79 73 65 69 74 80 78 73 72 73 78 80 82 83 80 85 82
69 74 72 72 76 77 78 74 65 69 78 80 74 71 72 70 71 78 78 76 81 82
73 73 71 72 74 72 73 75 74 72 75 77 76 72 71 70 69 74 74 76 77 74
70 70 72 74 73 74 74 72 70 70 76 76 73 73 74 72 64 70 72 72 76 75
66 68 68 70 72 70 73 72 73 71 73 74 72 70 70 67 67 68 68 68 72 74
65 66 65 65 66 71 70 70 71 70 71 73 70 67 66 64 66 66 67 70 71 70
62 64 64 66 66 66 68 68 67 69 69 68 68 65 68 66 68 70 70 70 70 71
57 60 65 67 68 68 69 67 68 70 69 70 62 74 81 73 70 69 70 72 73 88
56 59 63 64 65 66 69 70 72 70 69 71 70 83 84 84 67 71 76 84 84 94
55 58 59 63 64 67 68 71 72 72 71 71 68 86 87 88 75 73 87 90 89 88
52 56 58 62 66 68 70 72 73 72 73 73 73 87 90 92 85 93 99 99 99 99
50 53 58 62 67 70 70 72 74 78 90 95 86 100 100 97 99 99 99 98 98 97
66 55 56 62 67 74 77 95 99 98 98 98 99 99 99 99 98 98 98 97 98 98

GFSNIL_sfc_rhum_081.txt.gz
RH
83 82 80 82 81 82 82 78 67 84 83 83 85 86 90 92 89 91 91 90 90 88
90 87 85 79 79 80 79 79 77 72 91 84 82 82 84 84 90 89 87 85 88 83
85 85 82 84 84 80 77 77 82 79 78 82 80 78 78 77 77 83 84 84 87 85
81 79 81 81 83 80 79 76 73 78 80 79 83 79 78 73 70 77 75 78 83 82
77 73 74 80 79 80 81 80 80 74 72 74 78 82 79 78 69 71 74 76 81 85
80 79 78 78 75 75 77 77 79 79 77 71 76 76 80 76 74 72 71 71 77 77
80 81 79 78 77 77 78 79 80 80 79 79 75 74 74 75 76 74 72 74 75 76
74 74 76 77 78 77 79 77 77 79 79 77 80 78 81 77 79 79 77 74 74 77
70 72 73 74 76 78 80 78 78 80 80 82 75 85 90 83 79 77 77 77 74 73
66 69 70 71 74 75 77 77 82 81 79 81 79 89 91 92 76 78 78 78 78 81
72 71 68 70 72 75 75 78 79 79 79 81 77 90 90 91 79 78 81 81 81 85
81 88 75 74 72 72 76 78 80 77 78 82 81 93 92 92 84 82 80 98 99 94
82 86 91 85 76 72 74 77 77 80 81 82 80 97 92 94 89 97 100 99 99 99
81 84 87 93 95 84 82 84 90 97 99 99 99 99 100 97 98 98 99 99 99 99

GFSNIL_sfc_rhum_084.txt.gz
RH
85 84 83 84 81 82 79 76 75 85 85 82 77 85 83 83 85 91 89 88 89 82
86 84 83 82 80 81 77 71 72 80 88 87 86 82 84 82 84 89 89 89 90 85
84 83 80 80 83 81 78 75 74 76 82 85 86 86 87 85 85 88 85 86 88 87
82 86 86 86 85 81 81 78 74 78 77 81 87 87 88 79 80 87 83 82 84 82
81 84 90 86 85 82 82 80 78 77 80 78 78 84 86 82 74 83 83 83 85 86
90 91 89 86 82 82 82 81 80 76 81 82 79 79 82 80 79 78 77 77 80 80
87 85 83 82 85 83 82 82 83 81 78 79 80 80 80 82 79 75 75 76 75 75
84 84 83 81 80 83 84 84 82 85 84 83 81 76 79 79 84 82 80 78 76 77
87 84 84 83 83 84 82 80 84 85 86 88 82 88 89 83 81 82 83 82 77 77
84 85 82 86 87 86 87 86 86 84 84 86 85 93 94 95 80 84 84 85 84 84
85 85 84 85 83 84 84 90 90 89 86 86 83 95 95 97 88 85 84 86 86 87
80 84 86 92 94 90 85 84 85 84 87 88 86 97 97 97 90 89 88 85 85 85
77 82 86 89 93 94 95 86 82 84 84 90 87 96 98 97 90 93 93 85 100 100
75 77 81 87 90 95 96 97 92 92 99 98 99 99 99 99 92 92 94 99 100 100

GFSNIL_sfc_rhum_087.txt.gz
RH
86 86 93 93 92 92 88 86 92 92 86 80 81 87 86 88 87 85 88 84 78 76
87 85 87 93 91 89 86 81 80 86 86 85 82 84 88 86 84 82 87 84 83 75
90 84 83 86 92 87 89 84 88 89 86 88 84 83 84 82 79 83 83 78 85 85
91 84 84 84 85 83 86 86 83 82 83 88 87 85 84 80 78 85 78 79 84 82
93 89 86 85 84 84 84 82 79 79 82 84 83 90 90 87 82 92 87 82 84 84
93 93 89 87 86 86 84 83 83 80 79 80 83 85 90 88 87 85 86 84 86 86
93 92 83 84 85 88 84 84 84 83 82 81 78 77 78 83 85 83 82 84 82 82
94 92 90 90 89 88 88 87 85 86 84 82 81 79 80 76 82 83 82 82 82 81
90 90 91 93 92 90 90 90 88 88 88 90 83 87 92 86 85 86 87 86 81 78
82 83 86 87 89 91 89 88 89 88 88 89 87 97 94 94 82 85 88 88 86 86
80 82 82 85 88 92 94 94 90 89 87 88 84 96 100 100 87 84 83 84 85 87
77 78 80 86 89 90 93 95 94 91 89 90 87 99 100 100 95 92 88 85 86 86
76 77 82 84 86 87 89 92 94 94 95 98 98 98 98 100 95 96 95 91 91 98
80 79 85 86 84 85 89 95 97 96 96 94 95 95 96 97 99 98 96 97 97 99

GFSNIL_sfc_rhum_090.txt.gz
RH
95 88 86 87 87 86 88 91 91 93 91 83 83 77 84 84 83 87 84 87 86 85
83 95 84 84 88 87 95 91 92 89 93 90 89 86 85 82 88 92 89 85 88 81
83 94 90 94 95 96 95 91 95 94 94 91 88 87 88 85 85 87 87 87 90 90
87 92 88 91 96 96 94 92 93 92 92 92 93 87 91 85 87 89 82 83 86 86
81 92 91 90 91 92 94 92 87 91 91 90 91 92 90 89 85 90 90 88 87 85
93 97 95 90 89 89 88 88 89 86 87 90 88 88 89 88 89 88 89 86 86 84
97 97 96 93 89 90 88 88 88 86 84 84 84 86 86 90 88 88 90 89 87 84
95 95 94 92 88 89 91 91 89 90 90 87 83 81 85 83 88 88 88 87 88 87
85 90 94 93 92 90 88 88 89 92 92 92 89 92 93 86 82 82 84 85 83 82
82 83 86 86 88 92 96 95 94 92 91 91 90 100 98 96 83 80 85 86 85 86
78 79 80 82 86 89 92 94 96 95 93 92 89 100 100 100 93 86 83 85 86 87
77 80 82 83 85 86 90 90 94 94 95 93 95 96 95 97 98 96 93 87 85 86
80 84 88 88 88 86 86 90 89 89 89 90 90 94 95 94 96 98 97 94 92 100
81 82 82 85 87 87 88 87 91 92 92 90 92 91 91 94 96 100 99 98 97 97

GFSNIL_sfc_rhum_093.txt.gz
RH
83 75 71 78 84 82 94 95 94 92 92 90 79 79 82 77 77 79 80 82 74 67
87 79 76 83 84 85 89 90 95 93 92 88 80 76 77 73 81 86 82 80 81 73
82 86 78 77 80 86 88 87 90 96 94 91 85 72 74 71 59 76 83 80 82 74
74 86 83 80 84 85 83 80 81 81 89 88 83 80 80 73 67 85 80 82 84 82
76 87 87 83 84 83 81 78 76 77 77 76 76 75 78 82 81 82 76 74 80 81
84 87 82 81 84 86 81 79 77 75 80 79 77 78 81 82 82 83 82 80 78 72
89 88 83 78 74 82 83 83 84 82 79 76 76 75 77 80 81 81 78 76 73 71
86 86 84 82 79 76 80 78 76 80 80 80 78 72 77 74 75 77 80 82 80 80
89 88 90 91 95 93 92 88 86 82 78 80 75 91 95 86 76 75 75 78 77 76
83 84 86 85 86 90 93 93 95 95 94 92 91 96 99 99 86 84 85 84 82 80
82 82 80 80 83 87 89 93 94 94 90 92 85 95 95 96 95 92 87 86 86 84
75 75 77 81 83 85 87 89 87 87 87 88 88 94 94 92 89 97 97 92 92 95
72 76 82 85 85 82 80 83 80 83 85 89 88 91 91 90 89 97 96 94 92 98
72 74 80 81 81 81 80 81 84 85 85 85 89 87 88 90 88 93 93 94 94 93

GFSNIL_sfc_rhum_096.txt.gz
RH
59 72 58 66 75 85 89 93 92 94 94 90 90 90 91 89 86 87 85 67 64 59
68 78 63 62 63 68 81 89 95 93 95 92 92 87 84 83 83 74 79 76 68 63
77 77 65 64 71 69 74 87 92 93 93 94 94 94 83 79 80 73 77 72 65 62
78 78 74 66 71 73 80 82 88 91 93 92 89 87 84 80 78 77 65 64 77 72
78 78 78 73 72 70 77 77 83 83 91 92 88 84 77 73 66 68 53 57 75 76
69 74 80 81 69 72 72 74 74 72 82 84 85 84 80 72 70 63 61 69 70 66
76 77 80 75 67 78 77 69 70 70 70 74 75 74 73 71 73 73 75 78 78 74
82 77 78 73 68 74 80 79 72 74 75 75 75 73 79 76 80 82 82 82 79 80
89 88 89 90 92 92 90 88 84 81 77 77 78 96 97 94 76 75 75 74 68 66
85 88 90 87 88 92 95 93 93 93 93 92 89 95 95 95 84 82 77 74 74 74
84 86 87 85 88 92 92 92 90 90 89 88 86 93 93 95 88 93 94 95 94 94
85 91 88 87 88 87 87 85 86 85 87 87 88 92 92 88 85 94 94 87 90 89
72 77 80 83 82 80 77 77 76 81 83 88 83 88 88 84 85 93 91 89 88 91
72 78 76 76 76 73 75 76 80 80 81 79 85 82 86 86 78 87 89 89 90 89

GFSNIL_sfc_rhum_099.txt.gz
RH
53 50 48 57 68 77 94 94 93 92 94 97 94 94 92 94 94 94 95 92 91 84
55 53 50 61 70 76 81 87 90 92 95 95 94 93 93 94 94 95 94 94 89 77
55 57 54 66 76 78 73 82 89 92 94 94 94 92 93 91 88 91 89 88 77 71
59 59 59 66 67 74 76 80 86 93 93 94 94 92 93 92 84 86 79 75 71 70
72 62 71 72 66 68 73 73 80 85 90 92 92 92 93 92 81 81 84 76 77 67
78 72 76 76 73 74 74 73 74 77 85 88 88 88 87 86 84 74 74 76 68 59
82 77 79 69 68 73 70 71 70 75 74 82 82 79 80 79 77 69 64 68 64 55
83 78 78 80 77 68 70 72 73 71 76 77 77 82 90 80 79 77 76 72 67 76
92 91 91 91 93 84 88 88 85 85 81 88 74 96 96 94 89 82 82 84 82 80
90 91 92 90 92 94 94 93 94 93 90 91 87 94 94 94 80 82 87 89 85 86
91 91 90 91 92 93 92 93 93 92 90 88 87 93 94 96 92 94 92 91 91 92
95 94 93 92 92 93 94 94 94 91 90 89 89 92 92 94 92 92 93 91 93 88
92 92 95 95 96 93 97 97 95 97 94 92 87 89 90 86 88 92 91 89 87 89
94 86 80 84 88 90 92 90 90 90 90 84 85 83 86 86 78 86 89 89 90 89

GFSNIL_sfc_rhum_102.txt.gz
RH
65 65 65 68 72 85 89 93 95 95 96 97 98 96 98 97 94 94 95 89 86 88
69 67 68 71 79 85 89 92 93 93 95 97 96 97 98 99 99 97 98 97 95 94
69 70 69 71 82 84 89 88 94 96 95 96 96 96 96 97 98 97 99 99 98 95
82 70 73 75 78 80 87 89 92 93 95 96 95 96 96 95 95 95 96 95 95 90
84 73 72 79 81 85 87 88 88 92 93 94 95 95 95 95 93 95 94 94 90 86
89 82 77 78 77 85 85 84 88 90 94 94 93 94 92 91 91 91 89 89 88 83
93 86 83 81 81 81 81 83 86 88 90 92 91 90 92 91 91 88 84 82 83 79
95 89 88 87 83 81 80 80 81 86 85 86 88 85 90 87 89 88 85 83 80 81
93 93 95 95 95 94 92 89 88 87 85 86 81 96 95 95 88 84 82 85 84 77
90 92 93 91 92 94 95 93 94 92 89 93 91 96 96 96 87 94 94 92 91 90
91 92 89 90 92 93 93 93 93 92 90 90 89 95 98 98 90 92 92 92 91 91
94 94 94 95 96 96 94 93 93 90 90 91 94 95 96 90 90 92 94 91 93 90
97 99 98 99 99 97 100 100 94 95 95 94 93 95 95 91 92 96 95 96 96 93
100 99 100 100 100 100 100 100 100 97 96 96 96 96 95 96 96 96 96 95 95 92

GFSNIL_sfc_rhum_108.txt.gz
RH
85 90 86 89 90 93 95 95 95 94 96 96 97 97 97 97 97 97 98 96 93 94
88 91 88 87 92 94 93 96 96 94 95 95 96 95 97 98 98 98 97 96 96 94
89 90 90 88 94 95 94 95 96 96 96 96 97 96 97 94 97 98 97 96 95 93
96 97 93 90 93 93 94 96 96 96 97 98 97 97 98 98 97 98 98 96 95 94
96 97 96 96 94 92 95 95 96 94 94 94 96 98 97 98 98 96 97 98 96 97
94 97 97 96 97 93 96 93 96 94 95 94 96 98 98 97 98 98 94 94 96 96
93 94 97 96 94 93 92 92 94 94 94 96 96 98 96 97 98 97 97 96 95 95
90 90 92 96 97 96 96 95 93 95 95 94 95 94 98 96 97 98 98 98 97 96
90 88 92 94 96 96 96 94 93 93 92 93 89 98 98 100 97 96 97 98 97 96
91 92 94 93 95 96 97 96 96 96 95 97 97 98 98 100 95 96 97 97 99 94
90 93 92 96 98 98 95 96 95 96 96 96 95 97 97 96 94 95 96 95 94 95
95 96 95 96 98 98 97 96 97 94 95 97 97 97 95 92 93 95 97 95 96 95
98 96 98 99 99 100 97 98 97 97 97 96 97 96 94 92 91 96 96 96 97 99
95 97 98 98 99 99 98 97 97 96 96 97 97 98 97 94 93 96 96 96 97 98

GFSNIL_sfc_rhum_111.txt.gz
RH
76 92 93 92 88 90 88 86 94 95 95 94 96 96 96 96 95 94 97 95 95 95
87 88 89 92 94 93 92 95 96 96 97 97 97 97 98 98 98 98 97 98 97 96
91 82 90 89 95 95 95 96 98 97 96 96 96 97 97 97 97 97 97 96 98 96
96 86 92 92 94 95 96 97 97 96 96 95 96 97 98 96 95 98 97 98 98 95
91 93 97 96 94 96 96 95 95 95 96 96 96 96 97 98 98 98 98 97 98 97
92 93 94 96 97 96 96 96 96 96 96 96 96 98 98 97 98 98 97 98 97 96
92 92 92 90 94 96 95 95 95 95 94 94 94 95 96 97 98 98 97 96 96 96
89 88 89 90 89 92 96 94 94 97 97 96 96 99 98 97 98 98 99 98 99 97
87 87 90 90 90 91 92 93 97 97 97 96 92 98 99 100 98 98 98 98 98 98
88 89 91 91 91 94 96 96 96 96 96 97 97 99 99 100 98 99 99 99 99 98
88 89 88 91 94 97 99 100 98 98 96 96 94 97 97 97 95 96 97 97 97 98
92 91 91 94 96 96 96 99 100 98 96 97 97 96 95 93 94 96 97 96 98 97
95 95 95 96 97 97 95 97 96 96 97 99 98 99 97 92 92 96 96 96 98 98
93 94 96 96 97 96 97 96 96 96 98 97 97 99 96 98 98 97 96 97 98 98

GFSNIL_sfc_rhum_114.txt.gz
RH
86 88 94 93 92 95 95 93 90 95 96 91 95 96 96 96 97 96 97 96 96 93
92 90 85 94 94 96 96 96 97 95 96 94 94 96 97 98 98 97 97 96 96 96
91 93 90 86 95 94 96 97 97 97 96 94 94 96 97 97 97 98 97 97 97 96
90 90 94 86 93 94 95 96 97 96 96 96 94 98 98 98 98 98 98 96 96 93
89 88 91 93 96 95 95 95 95 96 97 97 97 97 97 97 96 96 95 92 97 97
90 90 91 91 90 93 97 97 97 97 98 97 96 97 96 95 96 96 94 96 96 97
90 90 90 89 89 90 91 95 98 97 96 96 96 96 97 97 97 97 96 96 97 96
88 87 87 89 88 88 90 89 90 95 97 96 98 98 98 96 97 97 98 98 98 97
85 86 89 89 90 89 89 90 91 93 93 94 92 98 99 100 97 98 99 99 99 99
86 86 88 88 90 93 95 93 95 94 94 95 96 97 98 100 99 99 99 100 99 99
88 89 87 88 92 94 95 98 98 98 96 95 96 97 97 97 95 97 97 98 97 99
90 92 91 94 94 94 94 95 96 96 96 98 98 98 97 93 94 97 97 97 98 98
94 95 95 96 96 95 94 96 93 94 96 95 97 100 99 95 97 96 96 96 98 98
92 94 94 94 94 94 94 92 93 94 94 95 97 97 95 94 95 97 95 96 97 98